Regional Weather Roundup
Issued by NWS Sterling, VA

Home | Current Version | Previous Version | Text Only | Print | Product List | Glossary Off
Versions: 1 2 3 4 5 6 7 8 9 10 11 12 13 14 15 16 17 18 19 20 21 22 23 24 25 26 27

000
ASUS41 KLWX 230310
RWRLWX

REGIONAL WEATHER ROUNDUP
NATIONAL WEATHER SERVICE BALTIMORE MD/WASHINGTON DC
1100 PM EDT TUE APR 22 2014

Note: "FAIR" indicates few or no clouds below 12,000 feet
with no significant weather and/or obstructions to visibility.
 TC=TEMPERATURE CELSIUS

 * =Non NWS site. Station does not report precipitation (e.g. rain,
    snow, etc.), thunder, or fog.

DCZ001-MDZ009-015-VAZ040>042-051-053>054-230400-
WASHINGTON METRO

CITY           SKY/WX    TMP DP  RH WIND       PRES   REMARKS
WASHINGTON NAT MOCLDY    62  51  67 N12       29.65R
DULLES         MOCLDY    57  51  80 N6        29.66S
ANDREWS AFB    CLEAR     58  52  80 N8        29.64S
FT BELVOIR     MOCLDY    59  54  82 NW5       29.65R
QUANTICO       CLEAR     62  52  69 N8        29.65R
COLLEGE PARK*  MOCLDY    59  52  77 N3        29.64S
LEESBURG*      PTCLDY    57  54  88 N10       29.68R
MANASSAS*      PTCLDY    59  54  82 N5        29.66R
GAITHERSBURG*  CLOUDY    55  52  88 CALM      29.69R

$$

MDZ006>007-011-014-230400-
BALTIMORE METRO

CITY           SKY/WX    TMP DP  RH WIND       PRES   REMARKS
BWI AIRPORT    MOCLDY    56  54  93 SW3       29.63F
MD SCIENCE CTR   N/A     60  54  80 MISG      29.63F
MARTIN STATE   RAIN      59  55  88 W5        29.64F
ANNAPOLIS      PTCLDY    59  52  77 W5        29.62F
FORT MEADE*    MOCLDY    54  50  87 CALM      29.66F

$$

MDZ012-015-019>023-230400-
MARYLAND EASTERN SHORE

CITY           SKY/WX    TMP DP  RH WIND       PRES   REMARKS
OCEAN CITY     CLOUDY    57  53  86 N5        29.61F
SALISBURY      MOCLDY    58  52  80 CALM      29.60F
BAY BRIDGE AP* PTCLDY    55  54  94 N3        29.62F
CAMBRIDGE*     PTCLDY    59  54  82 N3        29.62R
EASTON*        PTCLDY    62  52  71 N7        29.66

$$

MDZ017>025-230400-
SOUTHERN MARYLAND

CITY           SKY/WX    TMP DP  RH WIND       PRES   REMARKS
PATUXENT RIVER CLOUDY    60  52  74 W3        29.62R
ST INIGOES     MOCLDY    57  50  77 CALM      29.60F
LEONARDTOWN*   MOCLDY    59  50  72 NW3       29.64R

$$

MDZ003>005-230400-
NORTH CENTRAL MARYLAND

CITY           SKY/WX    TMP DP  RH WIND       PRES   REMARKS
FREDERICK*     CLOUDY    59  54  82 NW7       29.70R
HAGERSTOWN APT MOCLDY    54  40  59 NW17G24   29.70R
WESTMINSTER*   CLOUDY    55  52  88 W9        29.66R

$$

MDZ501>502-230400-
WESTERN MARYLAND

CITY           SKY/WX    TMP DP  RH WIND       PRES   REMARKS
OAKLAND*       CLOUDY    41  41 100 NW12G21   29.75S
CUMBERLAND*    CLOUDY    54  37  54 NW9G18    29.80R

$$

VAZ025>031-230400-
SHENANDOAH VALLEY

CITY           SKY/WX    TMP DP  RH WIND       PRES   REMARKS
WINCHESTER*    CLEAR     57  46  67 NW14G24   29.70R
STAUNTON*      PTCLDY    56  46  69 NW7       29.70R

$$

WVZ021-048>050-054>055-230400-
EASTERN WEST VIRGINIA PANHANDLE

CITY           SKY/WX    TMP DP  RH WIND       PRES   REMARKS
MARTINSBURG    CLOUDY    57  44  62 N8        29.71R
PETERSBURG*    MOCLDY    63  50  62 NW10      29.73R

$$

VAZ036>039-050-230400-
CENTRAL FOOTHILLS

CITY           SKY/WX    TMP DP  RH WIND       PRES   REMARKS
CHARLOTTESVILL CLEAR     66  47  50 NW5       29.65S
CULPEPER*      PTCLDY    63  52  67 N7        29.66R

$$

VAZ055>057-230400-
NORTH AND CENTRAL PIEDMONT

CITY           SKY/WX    TMP DP  RH WIND       PRES   REMARKS
FREDERICKSBRG* PTCLDY    62  54  74 CALM      29.62F
STAFFORD*      PTCLDY    59  57  92 CALM      29.70R

$$

NCZ024-NYZ072-PAZ021-071-VAZ022-071-230400-
OTHER REGIONAL OBSERVATIONS

CITY           SKY/WX    TMP DP  RH WIND       PRES   REMARKS
NEW YORK CITY  CLOUDY    62  50  64 W6        29.54F
PHILADELPHIA   PTCLDY    57  48  72 SW9       29.59F
PITTSBURGH     CLOUDY    48  34  58 NW15      29.81R
ROANOKE        PTCLDY    65  50  58 VRB6      29.72R
RICHMOND       CLOUDY    69  53  56 W6        29.62S
RALEIGH        MOCLDY    64  54  69 W7        29.71S

$$

ANZ530>537-230400-
MARINE OBSERVATIONS

STATION/POSITION TIME  TEMP    WIND        PRES
                       AIR SEA DIR/SP/G
                 (UTC) (F)     (DEG/KT/KT) (MB)
THOMAS PT LIGHT  0300   59 53  340/  5/  5 1003.6F
BALT KEY BRIDGE  0300   59     290/  3/  4 1003.3S
COVE POINT       0300   60     280/  3/  5 1002.8R
LEWISETTA        0300   60 58  170/  3/  3 1002.4F
SOLOMONS ISLAND  0300      56                N/A
PINEY POINT      0300          170/  6/  8   N/A

$$




USA.gov is the U.S. government's official web portal to all federal, state and local government web resources and services.